When you browse on this site, cookies collect data to enhance your experience and personalize the content and advertising you see.
Visit our Privacy Policy to learn more. By continuing to use the site, you agree to this use of cookies and data.
  • Em Portugal
  • Lista de países
  • Para 7 dias
  • Temperatura da água
  • Mapas de satélite
  • Mapa do tempo
  • Widgets de tempo
  • user-avatar
    Iniciar Sessão

    Previsão horária em Luksor

    Hoje, 25 Março, Segunda-feira

    Tempo Temperatura Precipitação Vento Pressão Humidade
    00:00 +21°C° 0 mm 6 m/s 748 mmHg 31%
    01:00 +21°C° 0 mm 5 m/s 748 mmHg 32%
    02:00 +20°C° 0 mm 5 m/s 747 mmHg 33%
    03:00 +20°C° 0 mm 4 m/s 747 mmHg 35%
    04:00 +19°C° 0 mm 4 m/s 748 mmHg 36%
    05:00 +18°C° 0 mm 3 m/s 748 mmHg 38%
    06:00 +19°C° 0 mm 4 m/s 748 mmHg 37%
    07:00 +20°C° 0 mm 5 m/s 748 mmHg 36%
    08:00 +21°C° 0 mm 7 m/s 748 mmHg 35%
    09:00 +22°C° 0 mm 8 m/s 748 mmHg 32%
    10:00 +23°C° 0 mm 8 m/s 749 mmHg 29%
    11:00 +24°C° 0 mm 9 m/s 749 mmHg 27%
    12:00 +24°C° 0 mm 9 m/s 749 mmHg 25%
    13:00 +24°C° 0 mm 10 m/s 748 mmHg 22%
    14:00 +24°C° 0 mm 10 m/s 748 mmHg 21%
    15:00 +24°C° 0 mm 9 m/s 748 mmHg 21%
    16:00 +24°C° 0 mm 9 m/s 748 mmHg 20%
    17:00 +24°C° 0 mm 8 m/s 749 mmHg 19%
    18:00 +23°C° 0 mm 7 m/s 749 mmHg 19%
    19:00 +22°C° 0 mm 6 m/s 750 mmHg 19%
    20:00 +21°C° 0 mm 5 m/s 750 mmHg 20%
    21:00 +20°C° 0 mm 4 m/s 751 mmHg 20%
    22:00 +19°C° 0 mm 4 m/s 751 mmHg 21%
    23:00 +19°C° 0 mm 3 m/s 751 mmHg 22%

    Amanhã, 26 Março, Terça-feira

    Tempo Temperatura Precipitação Vento Pressão Humidade
    00:00 +18°C° 0 mm 3 m/s 751 mmHg 23%
    01:00 +18°C° 0 mm 3 m/s 751 mmHg 25%
    02:00 +17°C° 0 mm 2 m/s 752 mmHg 26%
    03:00 +17°C° 0 mm 2 m/s 752 mmHg 28%
    04:00 +16°C° 0 mm 2 m/s 752 mmHg 29%
    05:00 +16°C° 0 mm 1 m/s 752 mmHg 30%
    06:00 +17°C° 0 mm 2 m/s 752 mmHg 28%
    07:00 +18°C° 0 mm 2 m/s 753 mmHg 26%
    08:00 +19°C° 0 mm 2 m/s 753 mmHg 24%
    09:00 +21°C° 0 mm 3 m/s 754 mmHg 23%
    10:00 +22°C° 0 mm 4 m/s 754 mmHg 21%
    11:00 +23°C° 0 mm 4 m/s 754 mmHg 19%
    12:00 +25°C° 0 mm 4 m/s 753 mmHg 18%
    13:00 +26°C° 0 mm 5 m/s 753 mmHg 16%
    14:00 +27°C° 0 mm 5 m/s 753 mmHg 15%
    15:00 +27°C° 0 mm 5 m/s 752 mmHg 15%
    16:00 +27°C° 0 mm 5 m/s 752 mmHg 15%
    17:00 +27°C° 0 mm 5 m/s 752 mmHg 15%
    18:00 +26°C° 0 mm 4 m/s 753 mmHg 16%
    19:00 +25°C° 0 mm 4 m/s 753 mmHg 18%
    20:00 +24°C° 0 mm 3 m/s 754 mmHg 20%
    21:00 +22°C° 0 mm 3 m/s 754 mmHg 21%
    22:00 +22°C° 0 mm 3 m/s 754 mmHg 22%
    23:00 +21°C° 0 mm 2 m/s 755 mmHg 24%

    Depois de amanhã, 27 Março, Quarta-feira

    Tempo Temperatura Precipitação Vento Pressão Humidade
    00:00 +20°C° 0 mm 2 m/s 755 mmHg 24%
    01:00 +20°C° 0 mm 2 m/s 755 mmHg 24%
    02:00 +19°C° 0 mm 2 m/s 755 mmHg 25%
    03:00 +19°C° 0 mm 2 m/s 755 mmHg 25%
    04:00 +18°C° 0 mm 2 m/s 755 mmHg 26%
    05:00 +18°C° 0 mm 2 m/s 755 mmHg 26%
    06:00 +19°C° 0 mm 2 m/s 756 mmHg 25%
    07:00 +20°C° 0 mm 2 m/s 756 mmHg 24%
    08:00 +21°C° 0 mm 3 m/s 757 mmHg 22%
    09:00 +22°C° 0 mm 3 m/s 757 mmHg 20%
    10:00 +25°C° 0 mm 4 m/s 757 mmHg 19%
    11:00 +26°C° 0 mm 4 m/s 757 mmHg 17%
    12:00 +27°C° 0 mm 4 m/s 756 mmHg 15%
    13:00 +28°C° 0 mm 4 m/s 756 mmHg 14%
    14:00 +29°C° 0 mm 4 m/s 755 mmHg 12%
    15:00 +29°C° 0 mm 4 m/s 755 mmHg 12%
    16:00 +29°C° 0 mm 4 m/s 755 mmHg 12%
    17:00 +29°C° 0 mm 5 m/s 755 mmHg 12%
    18:00 +28°C° 0 mm 4 m/s 755 mmHg 14%
    19:00 +26°C° 0 mm 4 m/s 756 mmHg 15%
    20:00 +25°C° 0 mm 4 m/s 756 mmHg 17%
    21:00 +23°C° 0 mm 4 m/s 756 mmHg 19%
    22:00 +24°C° 0 mm 3 m/s 757 mmHg 20%
    23:00 +23°C° 0 mm 2 m/s 757 mmHg 22%

    28 Março, Quinta-feira

    Tempo Temperatura Precipitação Vento Pressão Humidade
    00:00 +21°C° 0 mm 2 m/s 756 mmHg 24%
    01:00 +20°C° 0 mm 2 m/s 756 mmHg 27%
    02:00 +21°C° 0 mm 1 m/s 756 mmHg 29%
    03:00 +20°C° 0 mm 1 m/s 756 mmHg 31%
    04:00 +20°C° 0 mm 1 m/s 756 mmHg 32%
    05:00 +19°C° 0 mm 1 m/s 756 mmHg 33%
    06:00 +21°C° 0 mm 1 m/s 756 mmHg 31%
    07:00 +20°C° 0 mm 0 m/s 757 mmHg 28%
    08:00 +21°C° 0 mm 0 m/s 757 mmHg 25%
    09:00 +25°C° 0 mm 1 m/s 757 mmHg 22%
    10:00 +26°C° 0 mm 1 m/s 757 mmHg 19%
    11:00 +27°C° 0 mm 1 m/s 757 mmHg 17%
    12:00 +28°C° 0 mm 1 m/s 756 mmHg 15%
    13:00 +29°C° 0 mm 1 m/s 755 mmHg 13%
    14:00 +30°C° 0 mm 1 m/s 754 mmHg 11%
    15:00 +30°C° 0 mm 1 m/s 754 mmHg 11%
    16:00 +30°C° 0 mm 1 m/s 753 mmHg 10%
    17:00 +30°C° 0 mm 1 m/s 753 mmHg 10%
    18:00 +29°C° 0 mm 1 m/s 753 mmHg 11%
    19:00 +28°C° 0 mm 1 m/s 753 mmHg 12%
    20:00 +27°C° 0 mm 1 m/s 754 mmHg 12%
    21:00 +26°C° 0 mm 1 m/s 754 mmHg 14%
    22:00 +25°C° 0 mm 1 m/s 754 mmHg 15%
    23:00 +24°C° 0 mm 1 m/s 754 mmHg 16%

    29 Março, Sexta-feira

    Tempo Temperatura Precipitação Vento Pressão Humidade
    00:00 +24°C° 0 mm 1 m/s 753 mmHg 17%
    01:00 +21°C° 0 mm 0 m/s 753 mmHg 18%
    02:00 +20°C° 0 mm 0 m/s 752 mmHg 19%
    03:00 +20°C° 0 mm 0 m/s 752 mmHg 19%
    04:00 +19°C° 0 mm 0 m/s 752 mmHg 20%
    05:00 +19°C° 0 mm 0 m/s 752 mmHg 20%
    06:00 +21°C° 0 mm 0 m/s 752 mmHg 18%
    07:00 +23°C° 0 mm 0 m/s 752 mmHg 15%
    08:00 +25°C° 0 mm 0 m/s 753 mmHg 13%
    09:00 +26°C° 0 mm 0 m/s 752 mmHg 12%
    10:00 +28°C° 0 mm 0 m/s 752 mmHg 11%
    11:00 +29°C° 0 mm 0 m/s 752 mmHg 9%
    12:00 +32°C° 0 mm 1 m/s 751 mmHg 9%
    13:00 +33°C° 0 mm 1 m/s 750 mmHg 8%
    14:00 +35°C° 0 mm 2 m/s 749 mmHg 8%
    15:00 +36°C° 0 mm 2 m/s 748 mmHg 8%
    16:00 +36°C° 0 mm 2 m/s 748 mmHg 8%
    17:00 +36°C° 0 mm 2 m/s 748 mmHg 8%
    18:00 +35°C° 0 mm 2 m/s 748 mmHg 9%
    19:00 +32°C° 0 mm 2 m/s 748 mmHg 10%
    20:00 +31°C° 0 mm 2 m/s 749 mmHg 11%
    21:00 +30°C° 0 mm 2 m/s 748 mmHg 11%
    22:00 +30°C° 0 mm 2 m/s 748 mmHg 12%
    23:00 +29°C° 0 mm 2 m/s 748 mmHg 12%

    30 Março, Sábado

    Tempo Temperatura Precipitação Vento Pressão Humidade
    00:00 +29°C° 0 mm 2 m/s 747 mmHg 12%
    01:00 +28°C° 0 mm 2 m/s 746 mmHg 12%
    02:00 +28°C° 0 mm 2 m/s 746 mmHg 13%
    03:00 +27°C° 0 mm 2 m/s 746 mmHg 13%
    04:00 +27°C° 0 mm 2 m/s 746 mmHg 13%
    05:00 +26°C° 0 mm 2 m/s 746 mmHg 13%
    06:00 +27°C° 0 mm 4 m/s 746 mmHg 14%
    07:00 +28°C° 0 mm 6 m/s 747 mmHg 14%
    08:00 +29°C° 0 mm 7 m/s 747 mmHg 14%
    09:00 +29°C° 0 mm 8 m/s 747 mmHg 20%
    10:00 +29°C° 0 mm 9 m/s 747 mmHg 27%
    11:00 +29°C° 0 mm 10 m/s 747 mmHg 33%
    12:00 +29°C° 0 mm 10 m/s 747 mmHg 30%
    13:00 +29°C° 0 mm 10 m/s 746 mmHg 27%
    14:00 +31°C° 0 mm 10 m/s 746 mmHg 25%
    15:00 +29°C° 0 mm 10 m/s 746 mmHg 24%
    16:00 +28°C° 0 mm 10 m/s 747 mmHg 24%
    17:00 +28°C° 0 mm 10 m/s 747 mmHg 23%
    18:00 +26°C° 0 mm 9 m/s 747 mmHg 24%
    19:00 +24°C° 0 mm 8 m/s 748 mmHg 25%
    20:00 +23°C° 0 mm 7 m/s 749 mmHg 25%
    21:00 +22°C° 0 mm 8 m/s 749 mmHg 26%
    22:00 +21°C° 0 mm 8 m/s 749 mmHg 27%
    23:00 +20°C° 0 mm 8 m/s 749 mmHg 28%
    Mostrar mais